Regional Weather Roundup
Issued by NWS

Home | Current Version | Previous Version | Graphics & Text | Print | Product List | Glossary Off
Versions: 1 2 3 4 5 6 7 8 9 10 11 12 13 14 15 16 17 18 19 20 21 22 23 24 25 26 27 28 29 30 31 32 33 34 35 36 37 38 39 40 41 42 43 44 45 46 47 48 49 50

000
ASUS43 KMKX 140510
RWRWI

WISCONSIN REGIONAL WEATHER ROUNDUP
NATIONAL WEATHER SERVICE MILWAUKEE/SULLIVAN WI
1100 PM CST WED DEC 13 2017

NOTE: "FAIR" INDICATES FEW OR NO CLOUDS BELOW 12,000 FEET WITH NO
SIGNIFICANT WEATHER AND/OR OBSTRUCTIONS TO VISIBILITY.

WIZ001-002-006>008-014>016-023>028-140600-
NORTHWEST WISCONSIN

CITY           SKY/WX    TMP DP  RH WIND       PRES   REMARKS
SUPERIOR ARPT  MOCLDY    15  12  89 CALM      29.96R
ASHLAND        CLOUDY    14  10  84 NW7       29.93R WCI   4
HAYWARD        CLOUDY    19  12  74 N3        29.90R
SIREN          FLURRIES  14  13  93 CALM      29.93S
CUMBERLAND     FLURRIES  18  12  79 N5        29.89F WCI  11
RICE LAKE      CLOUDY    17  15  93 CALM      29.92R
CHETEK         CLOUDY    15  13  92 CALM      29.91S
LADYSMITH      CLEAR     13  11  91 NW7       29.90S WCI   3
EAU CLAIRE     CLOUDY    11   8  88 N3        29.92R
MENOMONIE      FLURRIES  12   9  88 CALM      29.92F
NEW RICHMOND   PTCLDY     7   4  84 CALM      29.93R
OSCEOLA        FLURRIES  18  16  90 CALM      29.96S
$$

WIZ003>005-009-010-017-018-140600-
NORTH CENTRAL WISCONSIN

CITY           SKY/WX    TMP DP  RH WIND       PRES   REMARKS
MANITOWISH WTR CLOUDY    14  12  90 NE5       29.83R WCI   7
ARBOR VITAE    CLOUDY    17  10  75 N9        29.82R WCI   5
WOODRUFF       CLOUDY    17  10  75 N9        29.82R WCI   5
RHINELANDER    CLOUDY    15  11  83 NW3       29.82R
EAGLE RIVER    CLOUDY    15   9  78 N7        29.80R WCI   5
LAND O LAKES   CLOUDY    15  10  78 N7        29.82R WCI   5
PHILLIPS       CLOUDY    14  12  94 CALM      29.85R
TOMAHAWK       FLURRIES  13  10  90 CALM      29.84R
MEDFORD        CLOUDY    11   8  89 N3        29.84R
MERRILL        CLOUDY    11   9  89 CALM      29.85R
$$

WIZ029-030-035-036-043>047-140600-
CENTRAL WISCONSIN

CITY           SKY/WX    TMP DP  RH WIND       PRES   REMARKS
WAUSAU         CLOUDY    13  10  88 NW6       29.84R WCI   4
MOSINEE        NOT AVBL
MARSHFIELD     CLOUDY    11   8  88 N7        29.84R WCI   0
STEVENS POINT  CLOUDY     5   4  94 CALM      29.87R
WAUPACA        CLEAR     14  10  83 CALM      29.86S
WAUTOMA        CLEAR     14   9  80 NW5       29.88R WCI   6
WISC RAPIDS    CLEAR     13  10  88 N8        29.89R WCI   2
CAMP DOUGLAS   MOCLDY    16  12  86 NW6       29.89R WCI   7
$$

WIZ011>013-019>022-031-037>040-048>050-140600-
NORTHEAST WISCONSIN

CITY           SKY/WX    TMP DP  RH WIND       PRES   REMARKS
ANTIGO         LGT SNOW   6   4  92 NW6       29.81S WCI  -5
SHAWANO        CLOUDY    12   9  85 W3        29.86R
OCONTO         CLOUDY     5   3  91 CALM      29.86R
STURGEON BAY   FLURRIES  17  13  84 N16       29.83R WCI   2
GREEN BAY      CLOUDY     9   4  80 NW9       29.87R WCI  -4
MANITOWOC      PTCLDY    14   7  73 N10       29.83R WCI   1
APPLETON       PTCLDY    12   7  79 NW8       29.83R WCI   1
CLINTONVILLE   NOT AVBL
OSHKOSH        CLEAR     14   7  73 N14       29.85R WCI  -1
$$

WIZ032>034-041-042-053>061-140600-
SOUTHWEST WISCONSIN

CITY           SKY/WX    TMP DP  RH WIND       PRES   REMARKS
LA CROSSE      CLEAR     19  12  74 CALM      29.93R
SPARTA         CLOUDY    17  13  86 N3        29.92R
VIROQUA        MOCLDY    17  14  90 N8        29.86R WCI   6
BOSCOBEL       PTCLDY    21  13  71 NE5       29.90R WCI  15
PRAIRIE DU CHI CLEAR     22  12  67 NE3       29.91R
PLATTEVILLE    CLOUDY    23  16  76 N10G20    29.86R WCI  12
$$

WIZ056-057-062-063-064-067-068-140600-
SOUTH CENTRAL WISCONSIN

CITY           SKY/WX    TMP DP  RH WIND       PRES   REMARKS
REEDSBURG      CLOUDY    19  12  74 N9        29.87R WCI   8
BARABOO/DELLS  CLOUDY    18  13  82 N6        29.88R WCI   9
LONE ROCK      CLOUDY    21  15  78 N10       29.89R WCI  10
MINERAL POINT  CLOUDY    23  19  86 N12G18    29.85R WCI  12
MADISON        PTCLDY    18  12  77 N16       29.86R WCI   3
MIDDLETON      MOCLDY    21  15  76 N10       29.86R WCI  10
WATERTOWN      CLEAR     16  11  82 N10G21    29.83R WCI   4
MONROE         CLOUDY    23  18  80 N13       29.81R WCI  11
JANESVILLE     MOCLDY    23  18  80 N8G21     29.83R WCI  14
$$

WIZ051-052-058>065-066-070>072-140600-
SOUTHEAST WISCONSIN

CITY           SKY/WX    TMP DP  RH WIND       PRES   REMARKS
MILWAUKEE      CLOUDY    24  17  74 N17G26    29.78R WCI  11
WAUKESHA       CLEAR     18  12  79 N9G18     29.81R WCI   6
MILWAUKEE/TIMM CLEAR     19  12  73 N13G25    29.80R WCI   7
RACINE         LGT SNOW  25  20  81 N23G30    29.77R WCI  10
BURLINGTON     CLOUDY    23  19  86 N13       29.78R WCI  11
KENOSHA        FLURRIES  26  21  81 N12G22    29.75R WCI  16
FOND DU LAC    PTCLDY    16   7  67 N12       29.85R WCI   3
SHEBOYGAN      CLEAR     16   9  74 N14G21    29.80R WCI   2
WEST BEND      CLEAR     16  12  86 N10       29.80R WCI   3
JUNEAU         CLEAR     14   8  76 N12       29.84R WCI   1
$$

LSZ147-162-140600-
LAKE SUPERIOR

STATION/POSITION TIME  TEMP    WIND        PRES    WAVE
                       AIR SEA DIR/SP/G            HT/PER
                 (UTC) (F)     (DEG/KT/KT) (MB)    (FT/S)
DEVILS ISLAND    0500   18      10/  9/ 11 1015.1R
SAXON HARBOR     0440   22                 1012.9R
$$

LMZ867-665-643>646-140600-
LAKE MICHIGAN

STATION/POSITION TIME  TEMP    WIND        PRES    WAVE
                       AIR SEA DIR/SP/G            HT/PER
                 (UTC) (F)     (DEG/KT/KT) (MB)    (FT/S)
NORTHPORT PIER   0450   21     350/ 14     1009.5R
KEWAUNEE LAKESHO 0442   16     350/  9/ 12 1009.2R
SHEBOYGAN LAKESH 0500   21     340/ 24/ 27 1010.3R
PORT WASHINGTON  0440   19     330/  9/ 18 1009.8R
MILWAUKEE LAKESH 0450   23     340/ 18/ 21   N/A
KENOSHA   LAKESH 0500   26     350/ 21/ 26 1007.5
$$

TC  - TEMPERATURE IN CELSIUS
VSB - VISIBILITY IN STATUTE MILES
WCI - WIND CHILL INDEX
HX  - HEAT INDEX





USA.gov is the U.S. government's official web portal to all federal, state and local government web resources and services.